CZ-6A DEB, 63390

Orbit data source: Space-Track

CZ-6A DEB, 63390 is space debris in LEO originally from a launch on Tue, 06 Aug 2024 UTC launched from the Taiyaun Space Center, China (TSC). Debris objects in space refer to the collection of defunct objects orbiting the Earth. Examples of debris include non-operational satellites, rocket bodies, and fragments generated from explosions, collisions, or faulty payload assembly.

Loading next visibility...
Identifier
63390, 2024-140ADM
Orbit
LEO
Country
Flag of CNCN / PRC
Related business
Manufacturer
SAST
Mission
Spacecraft
Bus & Motor
Unknown
Mass
Unknown
Launch date (UTC)
2024-08-06 (2 years ago)
Launch vehicle
Unknown
Launch site
Taiyaun Space Center, China (TSC)
Object type
Payload
Rocket body
Debris
Shape & HBR
Unknown shape, 0.1 m
Radar Cross Section
Small (<0.1 m²)

Expand to show TLE details & history
Last TLE update: 2 weeks ago

TLE from 2 weeks ago
0 CZ-6A DEB
1 63390U 24140ADM 26158.05123163  .00001493  00000-0  69869-3 0  9993
2 63390  89.0040 276.3419 0052971 222.8720 136.8335 14.19056365 94016
Epoch: 2026-06-07T01:13Z
TLE epoch observation values (Epoch: 2026-06-07T01:13:46.412Z)
Latitude
-0.00001°
Longitude
2.44052°
Altitude
859.541 km
Speed
7.408 km/s
True Right ascension
18h 25m 22s
True Declination
0° 00' 00"
Sunlit
Object was in full shadow at epoch
Visualization orbit readout
Latitude
Unknown
Longitude
Unknown
Altitude
Unknown
Speed
Unknown
Apparent Right ascension
Unknown
Apparent Declination
Unknown
Sunlit
N/A
Visualization observer readout
Local Sidereal Time
10:18:53
Azimuth
Unknown
Elevation
Unknown
Doppler factor
Unknown
Orbital elements
Apogee altitude
863.657 km
Perigee altitude
787.34 km
Semi-major axis
7,203.635 km
Eccentricity
0.0053
Inclination
89.004°
RAAN
276.3419°
Arg. of periapsis
222.872°
True anomaly
137.24676°
Mean anomaly
136.8335°
Eccentric anomaly
137.04033°
Mean motion
3.5499 °/min
Orbital period
101.41 mins
BSTAR
0.00069869
Loading maneuver chart data...
Computing Atmospheric mass density...
Loading historical data...
Loading historical data...
Loading historical data...
Loading historical data...
Loading historical data...
Loading historical data...
Loading historical data...

Documentation

Showing up to 5 results
|